Accueil
METAR-TAF:

METAR-TAF

Aéroports :

Lyndonville, Vermont, États-Unis

latitude: 44-34-09N, longitude: 072-01-05W, altitude: 362 m

Observation

Le bulletin a été fait il y a 30 minutes, à 11:55 UTC
Vent 5 kt de sud-est
Température -11°C
Humidité 85%
Pression 1018 hPa
Visibilité: 8.0 km
Ciel couvert à une hauteur de 3000 ft
neige faible

METAR: KCDA 181155Z AUTO 13005KT 5SM -SN OVC030 M11/M13 A3006 RMK AO2 T11091133 11109 21145

Heure: 07:25 (12:25 UTC)


TAF: absent

Observations et prévisions météorologiques de plus de 4000 aéroports (messages METAR et TAF).

Les stations disponibles sont représentées par des disques jaunes et rouges sur la carte.

Passer la souris dessus pour voir le nom de la station.

Cliquer dessus pour voir les observations et prévisions météorologiques.

Pour changer de carte: cliquez sur les boutons verts avec une croix noire pour zoomer, sur le bouton vert avec un tiret pour effectuer un zoom arrière, ou sur les flèches vertes pour les cartes adjacentes.


METAR-TAF: